Afton Municipal Airport, WY

6:24 AM MST on November 14, 2019 (GMT -0700)
Afton Municipal

Weather History for KAFO - September, 2019

Change the Weather History Date:

Wednesday, September 11, 2019

  Actual Average Record
Temperature  
Mean Temperature 46 °F -  
Max Temperature 50 °F 72 °F 80 °F (2015)
Min Temperature 41 °F 35 °F 26 °F (2016)
Degree Days  
Heating Degree Days 20    
Moisture  
Dew Point 41 °F    
Average Humidity 87    
Maximum Humidity 100    
Minimum Humidity 66    
Precipitation  
Precipitation 0.00 in - - ()
Sea Level Pressure  
Sea Level Pressure 30.15 in    
Wind  
Wind Speed 4 mph ()    
Max Wind Speed 14 mph    
Max Gust Speed 18 mph    
Visibility 9.5 miles    
Events Rain , Thunderstorm    
Averages and records for this station are not official NWS values.
T = Trace of Precipitation, MM = Missing Value Source: Averaged Metar Reports

Daily Weather History Graph

Daily Weather History Graph

Search for Another Location

Airport or City:

Astronomy

Sep. 11, 2019 Rise Set
Actual Time 6:59 AM MDT 7:40 PM MDT
Civil Twilight 6:30 AM MDT 8:09 PM MDT
Nautical Twilight 5:56 AM MDT 8:43 PM MDT
Astronomical Twilight 5:21 AM MDT 9:18 PM MDT
Moon 6:59 PM MDT (9/11) 4:20 AM MDT (9/11)
Length of Visible Light 13h 38m
Length of Day
12h 41m
Waxing Gibbous, 95% of the Moon is Illuminated
Sep 11
Waxing Gibbous
Sep 13
Full
Sep 21
Last Quarter
Sep 28
New
Oct 5
First Quarter

Hourly Weather History & Observations

Time (MDT) Temp. Windchill Dew Point Humidity Pressure Visibility Wind Dir Wind Speed Gust Speed Precip Events Conditions
12:15 AM 44.6 °F 43.1 °F 42.8 °F 93% 30.02 in 10.0 mi WNW 3.5 mph - N/A   Scattered Clouds
12:35 AM 44.6 °F 43.1 °F 42.8 °F 93% 30.07 in 10.0 mi SSW 3.5 mph - N/A   Mostly Cloudy
12:55 AM 46.4 °F 42.4 °F 42.8 °F 87% 30.04 in 10.0 mi NE 8.1 mph - N/A Rain Light Rain
1:15 AM 44.6 °F 39.7 °F 42.8 °F 93% 30.03 in 10.0 mi NNW 9.2 mph - N/A   Mostly Cloudy
1:35 AM 44.6 °F 43.1 °F 44.6 °F 100% 30.03 in 10.0 mi NE 3.5 mph - N/A   Overcast
1:55 AM 44.6 °F 43.1 °F 44.6 °F 100% 30.02 in 10.0 mi WNW 3.5 mph - N/A Rain Light Rain
2:15 AM 44.6 °F - 44.6 °F 100% 30.02 in 10.0 mi Calm Calm - N/A Rain Light Rain
2:35 AM 44.6 °F - 44.6 °F 100% 30.02 in 10.0 mi Calm Calm - N/A Rain Light Rain
2:55 AM 44.6 °F 40.7 °F 44.6 °F 100% 30.03 in 10.0 mi South 6.9 mph - N/A   Overcast
3:15 AM 44.6 °F 41.4 °F 44.6 °F 100% 30.06 in 10.0 mi South 5.8 mph - N/A Rain Rain
3:35 AM 44.6 °F 43.1 °F 42.8 °F 93% 30.06 in 7.0 mi SW 3.5 mph - N/A Rain Rain
3:55 AM 44.6 °F 42.2 °F 42.8 °F 93% 30.07 in 5.0 mi SSE 4.6 mph - N/A Rain Rain
4:15 AM 44.6 °F 43.1 °F 42.8 °F 93% 30.06 in 10.0 mi East 3.5 mph - N/A Rain Rain
4:35 AM 44.6 °F 42.2 °F 42.8 °F 93% 30.06 in 7.0 mi North 4.6 mph - N/A Rain Rain
4:55 AM 44.6 °F - 42.8 °F 93% 30.07 in 5.0 mi Calm Calm - N/A Rain Rain
5:15 AM 42.8 °F 40.1 °F 42.8 °F 100% 30.07 in 7.0 mi East 4.6 mph - N/A Rain Rain
5:35 AM 42.8 °F 40.1 °F 41.0 °F 93% 30.07 in 7.0 mi ENE 4.6 mph - N/A Rain Rain
5:55 AM 42.8 °F 41.1 °F 41.0 °F 93% 30.07 in 7.0 mi ESE 3.5 mph - N/A Rain Rain
6:15 AM 42.8 °F 38.6 °F 41.0 °F 93% 30.08 in 10.0 mi SSE 6.9 mph - N/A Rain Light Rain
6:35 AM 42.8 °F 41.1 °F 37.4 °F 81% 30.07 in 10.0 mi ESE 3.5 mph - N/A Rain Light Rain
6:55 AM 41.0 °F 35.8 °F 39.2 °F 93% 30.05 in 10.0 mi East 8.1 mph - N/A Rain Rain
7:15 AM 42.8 °F - 35.6 °F 76% 30.01 in 10.0 mi Calm Calm - N/A   Overcast
7:35 AM 41.0 °F 35.2 °F 37.4 °F 87% 30.03 in 10.0 mi South 9.2 mph - N/A   Scattered Clouds
7:55 AM 41.0 °F 37.1 °F 37.4 °F 87% 30.05 in 10.0 mi ESE 5.8 mph - N/A   Mostly Cloudy
8:15 AM 41.0 °F 39.0 °F 37.4 °F 87% 30.06 in 10.0 mi SE 3.5 mph - N/A   Overcast
8:35 AM 42.8 °F 41.1 °F 39.2 °F 87% 30.07 in 10.0 mi South 3.5 mph - N/A   Overcast
8:55 AM 42.8 °F 41.1 °F 39.2 °F 87% 30.08 in 10.0 mi South 3.5 mph - N/A   Overcast
9:15 AM 42.8 °F 41.1 °F 41.0 °F 93% 30.10 in 10.0 mi West 3.5 mph - N/A   Overcast
9:35 AM 42.8 °F - 39.2 °F 87% 30.10 in 10.0 mi Calm Calm - N/A   Overcast
9:55 AM 44.6 °F - 37.4 °F 76% 30.11 in 10.0 mi Calm Calm - N/A   Overcast
10:15 AM 44.6 °F - 39.2 °F 81% 30.11 in 10.0 mi Calm Calm - N/A   Overcast
10:35 AM 44.6 °F - 41.0 °F 87% 30.11 in 10.0 mi Calm Calm - N/A   Drizzle
10:55 AM 44.6 °F - 39.2 °F 81% 30.11 in 10.0 mi Calm Calm - N/A   Drizzle
11:15 AM 46.4 °F - 41.0 °F 81% 30.11 in 10.0 mi Calm Calm - N/A   Light Drizzle
11:55 AM 46.4 °F 44.3 °F 41.0 °F 81% 30.13 in 10.0 mi NNE 4.6 mph - N/A   Overcast
12:15 PM 48.2 °F - 41.0 °F 76% 30.13 in 10.0 mi ENE 4.6 mph - N/A   Overcast
12:35 PM 50.0 °F - 39.2 °F 66% 30.13 in 10.0 mi NE 3.5 mph - N/A   Overcast
12:55 PM 46.4 °F 41.9 °F 41.0 °F 81% 30.14 in 10.0 mi NNE 9.2 mph 16.1 mph N/A   Overcast
1:15 PM 46.4 °F 41.5 °F 41.0 °F 81% 30.16 in 10.0 mi North 10.4 mph - N/A Rain Light Rain
1:35 PM 44.6 °F 39.2 °F 41.0 °F 87% 30.16 in 10.0 mi NNE 10.4 mph - N/A   Overcast
1:55 PM 46.4 °F 42.9 °F 41.0 °F 81% 30.17 in 10.0 mi NE 6.9 mph - N/A   Overcast
2:15 PM 46.4 °F - 41.0 °F 81% 30.17 in 10.0 mi Calm Calm - N/A   Overcast
2:35 PM 44.6 °F 40.7 °F 41.0 °F 87% 30.17 in 3.0 mi ENE 6.9 mph - N/A Rain Rain
2:55 PM 48.2 °F - 42.8 °F 82% 30.17 in 10.0 mi Calm Calm - N/A Rain Light Rain
3:15 PM 50.0 °F - 41.0 °F 71% 30.17 in 10.0 mi Calm Calm - N/A   Overcast
3:35 PM 48.2 °F - 41.0 °F 76% 30.18 in 10.0 mi Calm Calm - N/A   Overcast
4:15 PM 46.4 °F 42.9 °F 42.8 °F 87% 30.19 in 10.0 mi SE 6.9 mph - N/A   Overcast
4:35 PM 46.4 °F 43.5 °F 42.8 °F 87% 30.20 in 10.0 mi SE 5.8 mph - N/A   Overcast
4:55 PM 46.4 °F 44.3 °F 41.0 °F 81% 30.21 in 10.0 mi South 4.6 mph - N/A   Overcast
5:15 PM 50.0 °F - 41.0 °F 71% 30.21 in 10.0 mi SSE 5.8 mph - N/A   Overcast
5:35 PM 50.0 °F - 41.0 °F 71% 30.21 in 10.0 mi South 5.8 mph - N/A   Mostly Cloudy
5:55 PM 50.0 °F - 41.0 °F 71% 30.21 in 10.0 mi South 3.5 mph - N/A   Mostly Cloudy
6:15 PM 50.0 °F - 41.0 °F 71% 30.22 in 10.0 mi South 4.6 mph - N/A   Mostly Cloudy
6:35 PM 50.0 °F - 41.0 °F 71% 30.23 in 10.0 mi ESE 3.5 mph - N/A   Overcast
6:55 PM 48.2 °F - 41.0 °F 76% 30.23 in 10.0 mi NNE 13.8 mph 18.4 mph N/A   Mostly Cloudy
7:15 PM 44.6 °F 43.1 °F 39.2 °F 81% 30.25 in 7.0 mi NE 3.5 mph - N/A Rain Heavy Rain
7:35 PM 44.6 °F 38.4 °F 41.0 °F 87% 30.27 in 7.0 mi WNW 12.7 mph - N/A Rain , Thunderstorm Thunderstorms and Rain
7:55 PM 44.6 °F - 41.0 °F 87% 30.28 in 10.0 mi Calm Calm - N/A Rain Light Rain
8:15 PM 44.6 °F 42.2 °F 42.8 °F 93% 30.29 in 10.0 mi WNW 4.6 mph - N/A Rain Light Rain
8:35 PM 44.6 °F - 42.8 °F 93% 30.29 in 10.0 mi North - - N/A Rain Light Rain
8:55 PM 44.6 °F - 42.8 °F 93% 30.29 in 10.0 mi North - - N/A Rain Light Rain
9:15 PM 44.6 °F - 42.8 °F 93% 30.30 in 10.0 mi North - - N/A   Overcast
9:35 PM 44.6 °F 42.2 °F 42.8 °F 93% 30.29 in 10.0 mi SSE 4.6 mph - N/A   Overcast
9:55 PM 42.8 °F 40.1 °F 41.0 °F 93% 30.30 in 10.0 mi South 4.6 mph - N/A   Overcast
10:15 PM 42.8 °F 41.1 °F 41.0 °F 93% 30.30 in 10.0 mi South 3.5 mph - N/A   Overcast
10:35 PM 42.8 °F 41.1 °F 41.0 °F 93% 30.31 in 10.0 mi South 3.5 mph - N/A   Overcast
10:55 PM 42.8 °F 41.1 °F 42.8 °F 100% 30.31 in 10.0 mi South 3.5 mph - N/A   Overcast
11:15 PM 42.8 °F - 41.0 °F 93% 30.31 in 10.0 mi Calm Calm - N/A   Overcast
11:35 PM 42.8 °F - 41.0 °F 93% 30.31 in 10.0 mi Calm Calm - N/A   Overcast
11:55 PM 42.8 °F - 41.0 °F 93% 30.31 in 10.0 mi Calm Calm - N/A   Overcast